Ketchikan, AK

10:24 PM AKDT on September 20, 2018 (GMT -0800)
Ketchikan International

Weather History for PAKT - August, 2018

Change the Weather History Date:

Wednesday, August 8, 2018

  Actual Average Record
Temperature  
Mean Temperature 63 °F -  
Max Temperature 68 °F 65 °F 80 °F (1965)
Min Temperature 60 °F 53 °F 33 °F (1996)
Degree Days  
Heating Degree Days 2    
Growing Degree Days 13 (Base 50)    
Moisture  
Dew Point 58 °F    
Average Humidity 84    
Maximum Humidity 94    
Minimum Humidity 70    
Precipitation  
Precipitation 0.01 in - - ()
Sea Level Pressure  
Sea Level Pressure 29.93 in    
Wind  
Wind Speed 8 mph (SE)    
Max Wind Speed 16 mph    
Max Gust Speed -    
Visibility 10 miles    
Events Rain    
Averages and records for this station are not official NWS values.
T = Trace of Precipitation, MM = Missing Value Source: NWS Daily Summary

Daily Weather History Graph

Daily Weather History Graph

Search for Another Location

Airport or City:

Astronomy

Aug. 08, 2018 Rise Set
Actual Time 5:07 AM AKDT 8:36 PM AKDT
Civil Twilight 4:22 AM AKDT 9:20 PM AKDT
Nautical Twilight 3:20 AM AKDT 10:21 PM AKDT
Astronomical Twilight 1:34 AM AKDT 12:01 AM AKDT
Moon 1:44 AM AKDT (8/8) 6:48 PM AKDT (8/8)
Length of Visible Light 16h 57m
Length of Day
15h 29m
Waning Crescent, 10% of the Moon is Illuminated
Aug 8
Waning Crescent
Aug 11
New
Aug 17
First Quarter
Aug 26
Full
Sep 2
Last Quarter

Hourly Weather History & Observations

Time (AKDT) Temp. Dew Point Humidity Pressure Visibility Wind Dir Wind Speed Gust Speed Precip Events Conditions
12:53 AM 61.0 °F 57.0 °F 87% 29.96 in 10.0 mi South 4.6 mph - N/A   Overcast
1:53 AM 61.0 °F 57.0 °F 87% 29.94 in 10.0 mi SSE 9.2 mph - N/A   Overcast
2:29 AM 61.0 °F 57.0 °F 87% 29.95 in 10.0 mi SSE 4.6 mph - N/A   Mostly Cloudy
2:53 AM 61.0 °F 57.9 °F 90% 29.95 in 10.0 mi SE 8.1 mph - N/A   Mostly Cloudy
3:53 AM 61.0 °F 57.0 °F 87% 29.93 in 10.0 mi SSE 6.9 mph - 0.00 in   Overcast
4:05 AM 61.0 °F 57.9 °F 90% 29.93 in 10.0 mi SSE 4.6 mph - N/A   Overcast
4:53 AM 61.0 °F 57.0 °F 87% 29.94 in 10.0 mi SSE 6.9 mph - N/A   Overcast
5:08 AM 61.0 °F 57.0 °F 87% 29.93 in 10.0 mi SSE 6.9 mph - N/A   Overcast
5:53 AM 61.0 °F 57.0 °F 87% 29.94 in 10.0 mi SSE 8.1 mph - N/A   Overcast
6:05 AM 61.0 °F 57.0 °F 87% 29.94 in 10.0 mi SSE 6.9 mph - N/A   Overcast
6:53 AM 61.0 °F 59.0 °F 93% 29.94 in 10.0 mi SE 8.1 mph - 0.00 in   Overcast
7:53 AM 60.8 °F 59.0 °F 94% 29.94 in 10.0 mi SE 6.9 mph - N/A   Overcast
8:53 AM 62.6 °F 57.2 °F 82% 29.94 in 10.0 mi SE 12.7 mph - N/A   Overcast
9:53 AM 62.6 °F 59.0 °F 88% 29.95 in 5.0 mi SE 9.2 mph - N/A   Overcast
10:53 AM 62.1 °F 57.9 °F 86% 29.96 in 10.0 mi SE 10.4 mph - N/A   Overcast
11:53 AM 63.0 °F 57.9 °F 84% 29.96 in 10.0 mi SE 16.1 mph - N/A   Overcast
12:53 PM 66.2 °F 57.2 °F 73% 29.95 in 10.0 mi ESE 12.7 mph - N/A   Overcast
1:53 PM 66.2 °F 57.2 °F 73% 29.94 in 10.0 mi SE 9.2 mph - N/A   Mostly Cloudy
2:53 PM 66.2 °F 57.2 °F 73% 29.93 in 10.0 mi SSE 9.2 mph - N/A   Mostly Cloudy
3:53 PM 66.9 °F 57.0 °F 70% 29.93 in 10.0 mi SE 8.1 mph - N/A   Overcast
4:53 PM 64.4 °F 57.2 °F 77% 29.92 in 10.0 mi SE 11.5 mph - N/A   Overcast
5:53 PM 64.4 °F 57.2 °F 77% 29.91 in 10.0 mi SE 9.2 mph - N/A   Overcast
6:53 PM 64.4 °F 57.2 °F 77% 29.90 in 10.0 mi SE 10.4 mph - N/A   Overcast
7:53 PM 62.6 °F 59.0 °F 88% 29.90 in 10.0 mi SSE 10.4 mph - N/A   Overcast
8:53 PM 62.1 °F 57.0 °F 84% 29.91 in 10.0 mi SSE 10.4 mph - N/A   Overcast
9:53 PM 62.1 °F 57.9 °F 86% 29.91 in 10.0 mi SSE 8.1 mph - N/A   Overcast
10:28 PM 62.1 °F 57.9 °F 86% 29.91 in 10.0 mi SE 6.9 mph - N/A   Overcast
10:53 PM 61.0 °F 57.9 °F 90% 29.91 in 10.0 mi SE 8.1 mph - 0.00 in   Overcast
11:53 PM 61.0 °F 59.0 °F 93% 29.91 in 6.0 mi SE 13.8 mph - 0.01 in Rain Light Rain